Radiation Dose at Monitoring Post of Fukushima Daini Nuclear Power Station
Date,Time,MP-1(microSv/h),MP-2(microSv/h),MP-3(microSv/h),MP-4(microSv/h),MP-5(microSv/h),MP-6(microSv/h),MP-7(microSv/h),Wind Direction,Wind Velocity(m/s),Rain
2020/05/26,00:00,0.174,0.160,0.259,0.248,0.249,0.143,0.090,west-northwest,2.1,Yes
2020/05/26,00:10,0.176,0.162,0.259,0.248,0.248,0.142,0.091,northwest,1.3,Yes
2020/05/26,00:20,0.175,0.161,0.258,0.249,0.250,0.143,0.091,north,1.4,Yes
2020/05/26,00:30,0.175,0.161,0.259,0.248,0.249,0.142,0.091,north,1.2,Yes
2020/05/26,00:40,0.176,0.160,0.257,0.247,0.250,0.142,0.090,north,2.2,Yes
2020/05/26,00:50,0.175,0.162,0.258,0.245,0.247,0.142,0.090,northeast,4.1,Yes
2020/05/26,01:00,0.175,0.160,0.256,0.247,0.251,0.141,0.090,northeast,5.3,Yes
2020/05/26,01:10,0.175,0.162,0.258,0.246,0.247,0.142,0.089,north-northeast,3.8,Yes
2020/05/26,01:20,0.175,0.159,0.255,0.246,0.249,0.141,0.089,north-northeast,2.7,No
2020/05/26,01:30,0.173,0.160,0.257,0.244,0.246,0.140,0.088,north,2.8,No
2020/05/26,01:40,0.175,0.159,0.255,0.245,0.248,0.138,0.087,north,2.4,No
2020/05/26,01:50,0.172,0.158,0.255,0.244,0.246,0.138,0.086,north,2.3,No
2020/05/26,02:00,0.172,0.157,0.254,0.243,0.246,0.136,0.085,north-northwest,0.7,No
2020/05/26,02:10,0.171,0.158,0.255,0.240,0.243,0.135,0.084,north,0.9,No
2020/05/26,02:20,0.172,0.156,0.252,0.242,0.244,0.135,0.083,west-southwest,0.9,Yes
2020/05/26,02:30,0.173,0.160,0.255,0.241,0.245,0.139,0.087,north-northwest,2.1,Yes
2020/05/26,02:40,0.175,0.161,0.253,0.243,0.246,0.142,0.089,-,CALM,Yes
2020/05/26,02:50,0.175,0.163,0.255,0.242,0.249,0.143,0.090,north-northwest,3.4,Yes
2020/05/26,03:00,0.177,0.163,0.255,0.245,0.249,0.143,0.092,south-southeast,0.9,Yes
2020/05/26,03:10,0.178,0.165,0.256,0.245,0.252,0.145,0.093,east-northeast,8.9,Yes
2020/05/26,03:20,0.179,0.166,0.256,0.247,0.252,0.147,0.096,south,2.2,Yes
2020/05/26,03:30,0.180,0.166,0.259,0.249,0.254,0.148,0.096,east-northeast,1.2,Yes
2020/05/26,03:40,0.180,0.167,0.259,0.249,0.253,0.148,0.097,east,0.8,Yes
2020/05/26,03:50,0.179,0.166,0.259,0.248,0.255,0.147,0.096,east,6.8,Yes
2020/05/26,04:00,0.179,0.167,0.259,0.249,0.254,0.146,0.095,east-southeast,3.4,Yes
2020/05/26,04:10,0.177,0.164,0.259,0.247,0.253,0.145,0.093,east-southeast,2.1,Yes
2020/05/26,04:20,0.177,0.165,0.258,0.247,0.251,0.144,0.094,east,1.3,Yes
2020/05/26,04:30,0.177,0.165,0.257,0.248,0.252,0.143,0.093,east,2.0,Yes
2020/05/26,04:40,0.177,0.164,0.257,0.246,0.250,0.143,0.093,-,CALM,No
2020/05/26,04:50,0.174,0.164,0.255,0.244,0.250,0.140,0.091,east-northeast,1.7,No
2020/05/26,05:00,0.174,0.161,0.254,0.243,0.247,0.140,0.089,east-northeast,2.3,No
2020/05/26,05:10,0.173,0.160,0.253,0.244,0.246,0.137,0.088,east-northeast,1.4,No
2020/05/26,05:20,0.173,0.158,0.253,0.241,0.246,0.138,0.088,northeast,1.8,No
2020/05/26,05:30,0.171,0.158,0.250,0.241,0.245,0.136,0.086,north,1.9,No
2020/05/26,05:40,0.171,0.156,0.250,0.239,0.245,0.136,0.085,north-northwest,1.7,No
2020/05/26,05:50,0.169,0.157,0.250,0.239,0.244,0.134,0.084,north,1.7,No
2020/05/26,06:00,0.169,0.156,0.250,0.239,0.243,0.134,0.084,north,1.2,No
2020/05/26,06:10,0.168,0.155,0.248,0.239,0.243,0.134,0.083,north,1.2,No
2020/05/26,06:20,0.169,0.154,0.250,0.237,0.241,0.132,0.082,north-northeast,1.0,No
2020/05/26,06:30,0.167,0.156,0.248,0.239,0.241,0.132,0.082,north,1.2,No
2020/05/26,06:40,0.169,0.154,0.249,0.236,0.241,0.133,0.082,north,1.0,No
2020/05/26,06:50,0.167,0.155,0.249,0.240,0.243,0.131,0.081,north-northeast,0.6,No
2020/05/26,07:00,0.168,0.153,0.249,0.237,0.242,0.132,0.081,east-northeast,0.6,No
2020/05/26,07:10,0.167,0.154,0.248,0.237,0.243,0.131,0.082,south-southeast,1.1,No
2020/05/26,07:20,0.168,0.154,0.249,0.236,0.240,0.131,0.081,southeast,1.9,No
2020/05/26,07:30,0.166,0.154,0.246,0.238,0.243,0.132,0.081,south-southeast,2.5,No
2020/05/26,07:40,0.166,0.153,0.248,0.235,0.242,0.131,0.081,south-southeast,4.0,No
2020/05/26,07:50,0.167,0.153,0.246,0.238,0.241,0.132,0.082,south,1.5,No
2020/05/26,08:00,0.166,0.153,0.248,0.237,0.242,0.131,0.081,east-southeast,0.7,No
2020/05/26,08:10,0.167,0.155,0.247,0.236,0.240,0.132,0.082,-,CALM,No
2020/05/26,08:20,0.167,0.152,0.247,0.239,0.242,0.132,0.081,north-northwest,0.7,No
2020/05/26,08:30,0.167,0.152,0.248,0.237,0.241,0.131,0.081,north-northwest,1.6,No
2020/05/26,08:40,0.167,0.151,0.248,0.235,0.240,0.132,0.081,north-northeast,0.9,No
2020/05/26,08:50,0.166,0.154,0.246,0.236,0.239,0.132,0.080,east-northeast,1.1,No
2020/05/26,09:00,0.166,0.154,0.245,0.238,0.239,0.132,0.081,east,1.0,No
2020/05/26,09:10,0.167,0.153,0.246,0.237,0.243,0.131,0.081,east-southeast,1.7,No
2020/05/26,09:20,0.166,0.153,0.249,0.235,0.242,0.133,0.081,southeast,1.7,No
2020/05/26,09:30,0.166,0.154,0.249,0.237,0.240,0.132,0.081,south-southeast,2.1,No
2020/05/26,09:40,0.167,0.154,0.247,0.239,0.242,0.132,0.080,south,2.4,No
2020/05/26,09:50,0.167,0.152,0.249,0.237,0.243,0.132,0.081,south-southeast,2.5,No
2020/05/26,10:00,0.165,0.155,0.250,0.237,0.243,0.133,0.082,south-southeast,2.9,No
2020/05/26,10:10,0.167,0.155,0.249,0.236,0.241,0.132,-,south,2.9,No
2020/05/26,10:20,0.168,0.155,0.248,0.239,0.240,0.131,-,south,3.0,No
2020/05/26,10:30,0.167,0.153,0.247,0.241,0.241,0.133,-,south-southeast,3.0,No
2020/05/26,10:40,0.167,0.154,0.249,0.239,0.244,0.133,-,south-southeast,3.4,No
2020/05/26,10:50,0.168,0.155,0.251,0.238,0.242,0.133,-,south-southeast,3.5,No
2020/05/26,11:00,0.168,0.154,0.250,0.237,0.242,0.132,-,south-southeast,5.0,No
2020/05/26,11:10,0.167,0.153,0.250,0.237,0.240,0.133,-,south-southeast,5.6,No
2020/05/26,11:20,0.166,0.154,0.249,0.241,0.240,0.133,-,south-southeast,6.7,No
2020/05/26,11:30,0.166,0.154,0.248,0.240,0.243,0.134,-,south-southeast,5.6,No
2020/05/26,11:40,0.166,0.156,0.250,0.238,0.244,0.132,-,south-southeast,7.2,No
2020/05/26,11:50,0.170,0.154,0.251,0.238,0.243,0.133,-,south-southeast,7.7,No
2020/05/26,12:00,0.169,0.154,0.250,0.242,0.241,0.134,-,south,6.7,No
2020/05/26,12:10,0.167,0.153,0.251,0.240,0.242,0.134,-,south-southeast,7.0,No
2020/05/26,12:20,0.167,0.153,0.250,0.239,0.240,0.134,-,south-southeast,8.1,No
2020/05/26,12:30,0.166,0.154,0.248,0.239,0.241,0.133,-,south-southeast,8.1,No
2020/05/26,12:40,0.167,0.155,0.249,0.238,0.245,0.134,-,south-southeast,8.1,No
2020/05/26,12:50,0.167,0.155,0.248,0.240,0.246,0.133,-,south-southeast,8.1,No
2020/05/26,13:00,0.169,0.154,0.254,0.243,0.244,0.135,-,south-southeast,7.3,No
2020/05/26,13:10,0.169,0.153,0.254,0.242,0.241,0.134,-,south-southeast,7.5,No
2020/05/26,13:20,0.168,0.156,0.251,0.240,0.241,0.134,-,south-southeast,7.7,No
2020/05/26,13:30,0.168,0.155,0.250,0.239,0.241,0.134,-,south-southeast,8.3,No
2020/05/26,13:40,0.166,0.155,0.249,0.242,0.245,0.134,-,south-southeast,8.4,No
2020/05/26,13:50,0.167,0.154,0.251,0.242,0.246,0.134,-,south-southeast,7.4,No
2020/05/26,14:00,0.170,0.155,0.253,0.240,0.242,0.134,-,south-southeast,6.5,No
2020/05/26,14:10,0.169,0.156,0.255,0.240,0.241,0.134,-,south-southeast,6.6,No
2020/05/26,14:20,0.169,0.155,0.252,0.241,0.240,0.134,-,south-southeast,7.3,No
2020/05/26,14:30,0.167,0.155,0.250,0.242,0.242,0.135,-,south-southeast,8.1,No
2020/05/26,14:40,0.168,0.154,0.252,0.240,0.245,0.133,0.081,south-southeast,8.1,No
2020/05/26,14:50,0.170,0.155,0.254,0.240,0.245,0.134,0.081,south-southeast,5.9,No
2020/05/26,15:00,0.169,0.155,0.253,0.242,0.242,0.134,0.081,south-southeast,5.5,No
2020/05/26,15:10,0.169,0.154,0.254,0.243,0.242,0.135,0.081,south-southeast,3.7,No
2020/05/26,15:20,0.168,0.153,0.251,0.241,0.244,0.134,0.082,east-southeast,1.5,No
2020/05/26,15:30,0.168,0.155,0.253,0.240,0.246,0.134,0.081,east-southeast,2.0,No
2020/05/26,15:40,0.170,0.155,0.254,0.242,0.245,0.134,0.082,northeast,0.6,No
2020/05/26,15:50,0.169,0.155,0.252,0.242,0.242,0.134,0.080,north-northwest,2.8,No
2020/05/26,16:00,0.170,0.155,0.254,0.240,0.244,0.134,0.081,north,3.4,No
2020/05/26,16:10,0.169,0.155,0.253,0.243,0.244,0.134,0.081,north-northwest,3.5,No
2020/05/26,16:20,0.170,0.155,0.253,0.242,0.243,0.134,0.081,north,3.5,No
2020/05/26,16:30,0.170,0.154,0.256,0.242,0.246,0.134,0.082,north-northwest,3.5,No
2020/05/26,16:40,0.169,0.155,0.253,0.244,0.244,0.135,0.081,north-northwest,3.0,No
2020/05/26,16:50,0.168,0.155,0.254,0.240,0.243,0.134,0.082,north-northwest,2.2,No
2020/05/26,17:00,0.168,0.155,0.255,0.243,0.245,0.134,0.082,north-northwest,2.4,No
2020/05/26,17:10,0.170,0.156,0.255,0.242,0.243,0.135,0.082,north,1.3,No
2020/05/26,17:20,0.169,0.154,0.253,0.242,0.244,0.133,0.082,northwest,1.2,No
2020/05/26,17:30,0.170,0.155,0.253,0.243,0.245,0.135,0.082,northwest,0.6,No
2020/05/26,17:40,0.168,0.155,0.255,0.242,0.243,0.134,0.082,northwest,1.0,No
2020/05/26,17:50,0.169,0.156,0.253,0.243,0.245,0.134,0.081,west-northwest,1.1,No
2020/05/26,18:00,0.168,0.155,0.255,0.240,0.243,0.135,0.083,northwest,0.8,No
2020/05/26,18:10,0.169,0.156,0.252,0.243,0.245,0.134,0.082,-,CALM,No
2020/05/26,18:20,0.169,0.156,0.255,0.241,0.242,0.135,0.081,south-southeast,0.9,No
2020/05/26,18:30,0.169,0.158,0.253,0.243,0.244,0.134,0.082,south-southeast,1.2,No
2020/05/26,18:40,0.170,0.155,0.255,0.242,0.245,0.135,0.082,south,2.6,No
2020/05/26,18:50,0.169,0.157,0.254,0.243,0.244,0.135,0.082,south,3.5,No
2020/05/26,19:00,0.171,0.155,0.254,0.242,0.245,0.134,0.082,south-southeast,2.7,No
2020/05/26,19:10,0.169,0.156,0.254,0.242,0.244,0.135,0.082,south,2.3,No
2020/05/26,19:20,0.170,0.155,0.254,0.243,0.246,0.134,0.083,south-southeast,1.0,No
2020/05/26,19:30,0.169,0.156,0.254,0.242,0.244,0.135,0.083,-,CALM,No
2020/05/26,19:40,0.171,0.157,0.254,0.245,0.245,0.136,0.082,northwest,1.0,Yes
2020/05/26,19:50,0.171,0.158,0.256,0.244,0.246,0.137,0.083,northwest,1.2,Yes
2020/05/26,20:00,0.173,0.157,0.255,0.245,0.247,0.138,0.085,northwest,2.1,Yes
2020/05/26,20:10,0.172,0.158,0.258,0.244,0.248,0.139,0.085,southwest,1.6,Yes
2020/05/26,20:20,0.174,0.158,0.256,0.245,0.247,0.141,0.086,west-southwest,1.6,Yes
2020/05/26,20:30,0.176,0.160,0.257,0.247,0.249,0.141,0.088,south-southwest,2.2,Yes
2020/05/26,20:40,0.175,0.160,0.256,0.247,0.248,0.141,0.088,south-southwest,2.2,Yes
2020/05/26,20:50,0.175,0.161,0.257,0.245,0.250,0.140,0.089,south,1.5,Yes
2020/05/26,21:00,0.174,0.160,0.254,0.247,0.248,0.141,0.087,south-southwest,2.0,Yes
2020/05/26,21:10,0.175,0.160,0.257,0.245,0.249,0.141,0.089,south-southwest,1.8,Yes
2020/05/26,21:20,0.176,0.161,0.254,0.248,0.248,0.143,0.089,south,2.2,Yes
2020/05/26,21:30,0.176,0.163,0.258,0.246,0.250,0.142,0.091,south,2.4,Yes
2020/05/26,21:40,0.176,0.163,0.256,0.247,0.249,0.143,0.092,south-southwest,2.0,Yes
2020/05/26,21:50,0.178,0.163,0.259,0.246,0.253,0.144,0.092,south,1.5,Yes
2020/05/26,22:00,0.177,0.165,0.259,0.248,0.251,0.144,0.092,south-southeast,1.5,Yes
2020/05/26,22:10,0.177,0.162,0.259,0.246,0.251,0.144,0.092,south-southeast,3.2,Yes
2020/05/26,22:20,0.176,0.162,0.257,0.246,0.249,0.143,0.092,south,2.9,Yes
2020/05/26,22:30,0.176,0.163,0.256,0.245,0.250,0.141,0.090,south-southwest,3.6,Yes
2020/05/26,22:40,0.175,0.161,0.254,0.245,0.247,0.141,0.089,south-southwest,3.6,Yes
2020/05/26,22:50,0.173,0.160,0.255,0.245,0.249,0.140,0.089,south-southwest,3.6,Yes
2020/05/26,23:00,0.173,0.160,0.255,0.243,0.246,0.139,0.088,south-southwest,2.8,Yes
2020/05/26,23:10,0.173,0.159,0.253,0.243,0.248,0.139,0.087,south,2.5,Yes
2020/05/26,23:20,0.173,0.158,0.255,0.242,0.246,0.138,0.087,south-southwest,2.2,Yes
2020/05/26,23:30,0.172,0.157,0.252,0.241,0.246,0.137,0.086,south,2.1,Yes
2020/05/26,23:40,0.172,0.157,0.253,0.241,0.245,0.137,0.085,south,1.9,Yes
2020/05/26,23:50,0.170,0.159,0.250,0.242,0.248,0.137,0.086,south,1.3,Yes
